COSMOS 1275 DEB

Satellite information

Favourite Embed

Satellite Type and Status

DEBRISIN ORBIT

Key statistics

Satellite COSMOS 1275 DEB at a glance.

Uptime

16104

Days in orbit

Revolutions

≈ 14.1

Per day

Orbit

LEO

Low Earth Orbit

Inclination

82.9

Latest

Satellite identification and parameters

Extended collection of information and parameters for COSMOS 1275 DEB.

Object identification

Identified? True

Debris? True

Object name: COSMOS 1275 DEB

International designator: 1981-053HH

Object number (NORAD): 13813

Object ID (CCSDS): 13813

Country: COMMONWEALTH OF INDEPENDENT STATES (CIS)

Current information (Y/N): Y

RCS size: SMALL

Orbital parameters

Period: 101.846 minutes

Inclination: 82.9365 deg

SMA: 7224.181 km

Apoapsis: 878.46 km

Periapsis: 813.632 km

RAAN: 147.2174 deg

Eccentricy: 0.0044869

Argument of periapsis: 60.0603 deg

Mean anomaly: 64.043 deg

Mean motion: 14.13903693 rev/day

Mean motion (dot): 0.00001759 rev/day2

B* drag term: 0.00091041 1/REarth

Two-line elements (TLE)

Creation date: July 6, 2025, 6:05 p.m.

Reference frame: TEME

Reference center: EARTH

Epoch: July 6, 2025, 8:17 a.m. UTC

TLE line 0: 0 COSMOS 1275 DEB

TLE line 1: 1 13813U 81053HH 25187.34538829 .00001759 00000-0 91041-3 0 9998

TLE line 2: 2 13813 82.9365 147.2174 0044869 60.0603 64.0430 14.13903693164954

Live tracking on map

Real-time ground track for satellite COSMOS 1275 DEB.

In-orbit conjunctions

A list of the most updated potential collisions computed for object COSMOS 1275 DEB.

Target Orbit TCA Probability of collision Miss distance Type
FENGYUN 1C DEB SSO 2025-03-11 20:12:00 0.0001288623 112.0 (m) DEBRIS
CZ-6A DEB SSO 2025-03-06 04:02:02 0.0004230075 60.0 (m) DEBRIS
COSMOS 1365 LEO 2025-02-12 01:04:11 0.0001432387 882.0 (m) PAYLOAD

Associated space launch

Navigation satellite providing location information for the Tsiklon-B navigation system

COSMOS 1275 DEB was lifted into orbit during the mission ‘Kosmos-3M | Parus 27’, on board a Kosmos-3M space rocket.

The launch took place on June 4, 1981, 3:41 p.m. from 132/2.

For more information about the launch, click the button.

Launch to space Kosmos-3M | Parus 27
Kosmos-3M | Parus 27

Agency: N/A

Status: Launch Successful

Launch date: June 4, 1981, 3:41 p.m. UTC

Rocket: Kosmos-3M

Launch pad: 132/2

Location: Plesetsk Cosmodrome, Russian Federation

...

Latest news about this satellite

There are no fresh news available about this satellite. Check back as we update our databases every day.


Newsletter sign-up

Weekly statistics, charts and insights to help you stay on top of the space industry.